Location: Carri�res
(48.9069°N, 2.1792°E)
Time: 08:37:31
(UTC+00:00)

CZ-2C R/B - Visible Passes

Search period start: 11 May 2021 00:00
Search period end: 21 May 2021 00:00
Orbit: 784 x 871 km, 98.2° (Epoch: 10 May)

Date Brightness Start Highest point End Pass type
(mag) Time Alt. Az. Time Alt. Az. Time Alt. Az.
11 May 5.0 20:03:20 10° N 20:07:56 30° WNW 20:12:36 10° WSW visible
13 May 6.2 21:08:48 10° NW 21:10:09 11° NW 21:11:30 10° WNW visible
14 May 5.8 20:48:57 10° NNW 20:51:51 15° NW 20:54:47 10° W visible
15 May 5.6 20:29:43 10° NNW 20:33:31 20° WNW 20:37:21 10° WSW visible
16 May 5.2 20:10:41 10° N 20:15:07 26° WNW 20:19:37 10° WSW visible
19 May 5.9 20:56:32 10° NNW 20:58:59 13° NW 21:01:28 10° W visible
20 May 5.7 20:37:09 10° NNW 20:40:40 18° NW 20:44:13 10° W visible
